Simultaneous Nadir Overpasses (SNOs) Predictions

Prediction of SNOs between AQUA and METOP-C Satellite Orbit:

Table of predicted SNOs for the next 14.0 days since TLE Epoch: 1/7/2023
Index Date (AQUA) Time (AQUA) Lat,Lon (AQUA) SZA (AQUA ) Date (METOP-C) Time (METOP-C) Lat,Lon (METOP-C) SZA (METOP-C ) Distance(km) Time Diff (sec)
1 01/08/2023 10:22:02 74.15, 19.78 96.40 01/08/2023 10:20:58 74.14, 19.83 96.40 1.69 64
2 01/08/2023 11:11:28 -74.21,-172.71 83.55 01/08/2023 11:11:37 -74.23,-172.63 83.53 3.20 9
3 01/08/2023 12:01:02 74.60, -6.01 96.87 01/08/2023 12:02:11 74.56, -4.43 96.78 47.14 69
4 01/11/2023 05:05:35 -74.14, -81.07 84.01 01/11/2023 05:04:38 -74.16, -81.05 83.99 1.68 57
5 01/11/2023 05:55:02 74.18, 86.49 96.03 01/11/2023 05:55:18 74.19, 86.37 96.05 3.78 16
6 01/11/2023 06:44:40 -74.84,-107.50 83.27 01/11/2023 06:45:46 -74.82,-104.66 83.38 82.93 66
7 01/13/2023 23:49:09 74.17, 178.01 95.57 01/13/2023 23:48:18 74.16, 178.04 95.57 1.64 51
8 01/14/2023 00:38:35 -74.22, -14.47 84.38 01/14/2023 00:38:58 -74.20, -14.51 84.40 2.30 23
9 01/16/2023 18:32:39 -74.16, 77.18 84.95 01/16/2023 18:31:57 -74.17, 77.15 84.93 1.48 42
10 01/16/2023 19:22:07 74.25,-115.40 95.15 01/16/2023 19:22:36 74.24,-115.35 95.13 2.23 29
11 01/19/2023 13:16:11 74.18, -23.74 94.53 01/19/2023 13:15:36 74.18, -23.73 94.54 0.58 35
12 01/19/2023 14:05:37 -74.24, 143.78 85.42 01/19/2023 14:06:16 -74.25, 143.76 85.42 1.29 39



Historial Predications of SNOs between AQUA and METOP-C
